Location: Ethel Rock
(53.4667°N, 4.5667°W)
Time: 03:24:15
(UTC+00:00)

IDEFIX/ARIANE 42P - Pass Details

Date: 24 October 2020
Orbit: 784 x 803 km, 98.4° (Epoch: 25 November)

Event Time Altitude Azimuth Distance (km) Brightness Sun altitude
Rises 03:27:00 0° 16° (NNE) 3,318 6.3 -32.1°
Reaches altitude 10° 03:29:22 10° 18° (NNE) 2,380 5.5 -31.8°
Enters shadow 03:33:27 53° 38° (NE) 974 3.2 -31.2°
